| time (UTC) | temp F | wind direction | speed MPH | gust MPH | rain 1hr in | rain 24hr in | rain mn in | humidity % | barometer mb |
| 20260508172003 | 46 | 240 | 4.0 | 8.0 | 0.00 | 0.00 | 0.00 | 47 | 1008.7 |
| 20260508171003 | 46 | 248 | 3.0 | 10.0 | 0.00 | 0.00 | 0.00 | 46 | 1008.7 |
| 20260508170003 | 46 | 238 | 4.0 | 11.0 | 0.00 | 0.00 | 0.00 | 48 | 1008.7 |
| 20260508165003 | 46 | 233 | 5.0 | 14.0 | 0.00 | 0.00 | 0.00 | 46 | 1008.7 |
| 20260508164953 | 46 | 233 | 5.0 | 14.0 | 0.00 | 0.00 | 0.00 | 46 | 1008.7 |
| 20260508163003 | 45 | 262 | 3.0 | 10.0 | 0.00 | 0.00 | 0.00 | 46 | 1008.7 |
| 20260508162003 | 45 | 243 | 2.0 | 8.0 | 0.00 | 0.00 | 0.00 | 46 | 1008.7 |
| 20260508161003 | 45 | 239 | 4.0 | 11.0 | 0.00 | 0.00 | 0.00 | 46 | 1008.8 |
| 20260508160003 | 45 | 237 | 3.0 | 8.0 | 0.00 | 0.00 | 0.00 | 48 | 1008.8 |
| 20260508155024 | 45 | 236 | 3.0 | 10.0 | 0.00 | 0.00 | 0.00 | 46 | 1008.8 |
| 20260508154024 | 45 | 230 | 3.0 | 10.0 | 0.00 | 0.00 | 0.00 | 45 | 1008.7 |
| 20260508153003 | 46 | 351 | 3.0 | 9.0 | 0.00 | 0.00 | 0.00 | 45 | 1008.6 |
| 20260508152003 | 45 | 236 | 3.0 | 11.0 | 0.00 | 0.00 | 0.00 | 49 | 1008.5 |
| 20260508151003 | 45 | 245 | 3.0 | 10.0 | 0.00 | 0.00 | 0.00 | 46 | 1008.5 |
| 20260508150003 | 45 | 240 | 2.0 | 8.0 | 0.00 | 0.00 | 0.00 | 47 | 1008.5 |
| 20260508145003 | 45 | 224 | 3.0 | 16.0 | 0.00 | 0.00 | 0.00 | 45 | 1008.6 |
| 20260508144024 | 45 | 234 | 3.0 | 10.0 | 0.00 | 0.00 | 0.00 | 46 | 1008.4 |
| 20260508143024 | 45 | 228 | 4.0 | 8.0 | 0.00 | 0.00 | 0.00 | 48 | 1008.6 |
| 20260508142003 | 44 | 238 | 4.0 | 12.0 | 0.00 | 0.00 | 0.00 | 47 | 1008.5 |
| 20260508141003 | 44 | 264 | 3.0 | 7.0 | 0.00 | 0.00 | 0.00 | 50 | 1008.4 |
| 20260508140003 | 43 | 249 | 3.0 | 8.0 | 0.00 | 0.00 | 0.00 | 54 | 1008.4 |
| 20260508135024 | 43 | 238 | 3.0 | 8.0 | 0.00 | 0.00 | 0.00 | 55 | 1008.5 |
| 20260508134024 | 43 | 242 | 3.0 | 6.0 | 0.00 | 0.00 | 0.00 | 56 | 1008.6 |
| 20260508133024 | 42 | 239 | 4.0 | 11.0 | 0.00 | 0.00 | 0.00 | 57 | 1008.5 |
| 20260508132003 | 42 | 236 | 3.0 | 10.0 | 0.00 | 0.00 | 0.00 | 59 | 1008.7 |
| 20260508131003 | 41 | 226 | 4.0 | 12.0 | 0.00 | 0.00 | 0.00 | 61 | 1008.8 |
| 20260508130003 | 41 | 242 | 3.0 | 11.0 | 0.00 | 0.00 | 0.00 | 62 | 1008.8 |
| 20260508125003 | 40 | 236 | 3.0 | 10.0 | 0.00 | 0.00 | 0.00 | 63 | 1008.8 |
| 20260508124024 | 40 | 231 | 2.0 | 6.0 | 0.00 | 0.00 | 0.00 | 66 | 1008.8 |
| 20260508123003 | 39 | 248 | 3.0 | 6.0 | 0.00 | 0.00 | 0.00 | 67 | 1008.9 |
| 20260508122024 | 39 | 237 | 3.0 | 7.0 | 0.00 | 0.00 | 0.00 | 68 | 1008.9 |
| 20260508121024 | 38 | 240 | 2.0 | 5.0 | 0.00 | 0.00 | 0.00 | 70 | 1009.0 |
| 20260508120003 | 38 | 231 | 3.0 | 7.0 | 0.00 | 0.00 | 0.00 | 71 | 1009.0 |
| 20260508115003 | 38 | 211 | 2.0 | 5.0 | 0.00 | 0.00 | 0.00 | 72 | 1008.9 |
| 20260508114003 | 37 | 245 | 2.0 | 5.0 | 0.00 | 0.00 | 0.00 | 73 | 1008.9 |
| 20260508113024 | 37 | 214 | 2.0 | 5.0 | 0.00 | 0.00 | 0.00 | 75 | 1008.9 |
| 20260508112003 | 36 | 313 | 1.0 | 6.0 | 0.00 | 0.00 | 0.00 | 77 | 1008.8 |
| 20260508111003 | 35 | 217 | 1.0 | 4.0 | 0.00 | 0.00 | 0.00 | 81 | 1008.7 |
| 20260508110003 | 34 | 214 | 2.0 | 5.0 | 0.00 | 0.00 | 0.00 | 83 | 1008.6 |
| 20260508105003 | 32 | 211 | 1.0 | 3.0 | 0.00 | 0.00 | 0.00 | 87 | 1008.5 |
| 20260508104003 | 31 | 211 | 0.0 | 1.0 | 0.00 | 0.00 | 0.00 | 88 | 1008.6 |
| 20260508103003 | 31 | 211 | 0.0 | 3.0 | 0.00 | 0.00 | 0.00 | 88 | 1008.5 |
| 20260508102003 | 31 | 211 | 0.0 | 1.0 | 0.00 | 0.00 | 0.00 | 88 | 1008.4 |
| 20260508101003 | 31 | 0 | 0.0 | 0.0 | 0.00 | 0.00 | 0.00 | 87 | 1008.3 |
| 20260508100003 | 31 | 202 | 1.0 | 8.0 | 0.00 | 0.00 | 0.00 | 88 | 1008.2 |
| 20260508095003 | 30 | 0 | 0.0 | 0.0 | 0.00 | 0.00 | 0.00 | 88 | 1008.1 |
| 20260508094003 | 30 | 144 | 0.0 | 2.0 | 0.00 | 0.00 | 0.00 | 89 | 1008.0 |
| 20260508093003 | 30 | 144 | 0.0 | 2.0 | 0.00 | 0.00 | 0.00 | 89 | 1008.0 |
| 20260508092003 | 30 | 0 | 0.0 | 0.0 | 0.00 | 0.00 | 0.00 | 89 | 1008.0 |
| 20260508091024 | 30 | 0 | 0.0 | 0.0 | 0.00 | 0.00 | 0.00 | 89 | 1007.9 |
| 20260508090003 | 30 | 144 | 1.0 | 2.0 | 0.00 | 0.00 | 0.00 | 89 | 1007.9 |
| 20260508085024 | 30 | 144 | 1.0 | 2.0 | 0.00 | 0.00 | 0.00 | 88 | 1007.8 |
| 20260508084003 | 31 | 0 | 0.0 | 0.0 | 0.00 | 0.00 | 0.00 | 88 | 1007.8 |
| 20260508083003 | 31 | 0 | 0.0 | 0.0 | 0.00 | 0.00 | 0.00 | 88 | 1007.8 |
| 20260508082003 | 31 | 0 | 0.0 | 0.0 | 0.00 | 0.00 | 0.00 | 88 | 1007.8 |
| 20260508081003 | 32 | 0 | 0.0 | 0.0 | 0.00 | 0.00 | 0.00 | 87 | 1007.7 |
| 20260508080003 | 32 | 0 | 0.0 | 0.0 | 0.00 | 0.00 | 0.00 | 87 | 1007.7 |
| 20260508075003 | 32 | 144 | 0.0 | 1.0 | 0.00 | 0.00 | 0.00 | 87 | 1007.6 |
| 20260508074003 | 32 | 144 | 0.0 | 1.0 | 0.00 | 0.00 | 0.00 | 87 | 1007.6 |
| 20260508073003 | 32 | 144 | 0.0 | 4.0 | 0.00 | 0.00 | 0.00 | 88 | 1007.5 |
| 20260508072004 | 32 | 144 | 0.0 | 2.0 | 0.00 | 0.00 | 0.00 | 89 | 1007.5 |
| 20260508071003 | 32 | 0 | 0.0 | 0.0 | 0.00 | 0.00 | 0.00 | 89 | 1007.5 |
| 20260508070003 | 31 | 0 | 0.0 | 0.0 | 0.00 | 0.00 | 0.00 | 90 | 1007.5 |
| 20260508065003 | 31 | 0 | 0.0 | 0.0 | 0.00 | 0.01 | 0.00 | 90 | 1007.6 |
| 20260508064003 | 30 | 144 | 0.0 | 2.0 | 0.00 | 0.01 | 0.00 | 90 | 1007.6 |
| 20260508063003 | 30 | 144 | 0.0 | 1.0 | 0.00 | 0.01 | 0.00 | 89 | 1007.6 |
| 20260508062003 | 30 | 0 | 0.0 | 0.0 | 0.00 | 0.01 | 0.00 | 89 | 1007.5 |
| 20260508061003 | 30 | 0 | 0.0 | 0.0 | 0.00 | 0.01 | 0.00 | 89 | 1007.6 |
| 20260508060024 | 30 | 0 | 0.0 | 0.0 | 0.00 | 0.01 | 0.00 | 89 | 1007.6 |
| 20260508055003 | 30 | 0 | 0.0 | 0.0 | 0.00 | 0.01 | 0.00 | 89 | 1007.7 |
| 20260508054003 | 30 | 144 | 0.0 | 1.0 | 0.00 | 0.01 | 0.00 | 89 | 1007.8 |
| 20260508053003 | 30 | 0 | 0.0 | 0.0 | 0.00 | 0.01 | 0.00 | 89 | 1007.8 |
| 20260508052003 | 30 | 144 | 0.0 | 2.0 | 0.00 | 0.01 | 0.00 | 88 | 1007.8 |
| 20260508051003 | 30 | 144 | 0.0 | 2.0 | 0.00 | 0.01 | 0.00 | 88 | 1007.8 |
| 20260508050003 | 30 | 144 | 1.0 | 3.0 | 0.00 | 0.01 | 0.00 | 88 | 1007.8 |
| 20260508045003 | 30 | 145 | 1.0 | 3.0 | 0.00 | 0.01 | 0.00 | 88 | 1007.8 |
| 20260508044003 | 30 | 151 | 0.0 | 2.0 | 0.00 | 0.01 | 0.00 | 88 | 1007.9 |
| 20260508043024 | 30 | 191 | 0.0 | 2.0 | 0.00 | 0.01 | 0.00 | 87 | 1007.9 |
| 20260508042003 | 30 | 0 | 0.0 | 0.0 | 0.00 | 0.01 | 0.00 | 87 | 1008.0 |
| 20260508041003 | 30 | 191 | 1.0 | 2.0 | 0.00 | 0.01 | 0.00 | 87 | 1007.9 |
| 20260508040003 | 30 | 0 | 0.0 | 0.0 | 0.00 | 0.01 | 0.00 | 86 | 1007.9 |
| 20260508035003 | 31 | 0 | 0.0 | 0.0 | 0.00 | 0.01 | 0.01 | 86 | 1007.9 |
| 20260508034003 | 31 | 191 | 0.0 | 1.0 | 0.00 | 0.01 | 0.01 | 86 | 1007.7 |
| 20260508033003 | 31 | 191 | 0.0 | 1.0 | 0.00 | 0.01 | 0.01 | 86 | 1007.8 |
| 20260508032003 | 31 | 191 | 0.0 | 2.0 | 0.00 | 0.01 | 0.01 | 85 | 1007.8 |
| 20260508031003 | 32 | 0 | 0.0 | 0.0 | 0.00 | 0.01 | 0.01 | 84 | 1007.9 |
| 20260508030024 | 32 | 0 | 0.0 | 0.0 | 0.00 | 0.01 | 0.01 | 84 | 1007.9 |
| 20260508025024 | 32 | 0 | 0.0 | 0.0 | 0.00 | 0.01 | 0.01 | 83 | 1007.9 |
| 20260508024003 | 32 | 191 | 0.0 | 2.0 | 0.00 | 0.01 | 0.01 | 83 | 1007.9 |
| 20260508023003 | 32 | 198 | 0.0 | 1.0 | 0.00 | 0.01 | 0.01 | 83 | 1008.0 |
| 20260508022024 | 33 | 198 | 0.0 | 2.0 | 0.00 | 0.01 | 0.01 | 82 | 1008.0 |
| 20260508021003 | 33 | 0 | 0.0 | 0.0 | 0.00 | 0.01 | 0.01 | 81 | 1008.1 |
| 20260508020003 | 34 | 0 | 0.0 | 0.0 | 0.00 | 0.01 | 0.01 | 80 | 1008.1 |
| 20260508015003 | 34 | 0 | 0.0 | 0.0 | 0.00 | 0.01 | 0.01 | 79 | 1008.0 |
| 20260508014003 | 34 | 0 | 0.0 | 0.0 | 0.00 | 0.01 | 0.01 | 78 | 1008.0 |
| 20260508013003 | 35 | 0 | 0.0 | 0.0 | 0.00 | 0.01 | 0.01 | 76 | 1007.9 |
| 20260508012003 | 36 | 0 | 0.0 | 0.0 | 0.00 | 0.01 | 0.01 | 75 | 1007.9 |
| 20260508011003 | 37 | 0 | 0.0 | 0.0 | 0.00 | 0.01 | 0.01 | 72 | 1007.7 |
| 20260508010003 | 38 | 0 | 0.0 | 0.0 | 0.00 | 0.01 | 0.01 | 71 | 1007.7 |
| 20260508005003 | 39 | 0 | 0.0 | 0.0 | 0.00 | 0.01 | 0.01 | 69 | 1007.5 |
| 20260508004003 | 40 | 0 | 0.0 | 0.0 | 0.00 | 0.01 | 0.01 | 67 | 1007.3 |
| 20260508003003 | 41 | 0 | 0.0 | 0.0 | 0.00 | 0.01 | 0.01 | 67 | 1007.1 |
| 20260508002003 | 42 | 0 | 0.0 | 0.0 | 0.00 | 0.01 | 0.01 | 62 | 1007.0 |
| 20260508001003 | 43 | 0 | 0.0 | 0.0 | 0.00 | 0.01 | 0.01 | 60 | 1007.0 |
| 20260508000003 | 44 | 189 | 0.0 | 4.0 | 0.00 | 0.01 | 0.01 | 56 | 1006.9 |
| 20260507235003 | 44 | 135 | 0.0 | 4.0 | 0.00 | 0.01 | 0.01 | 53 | 1006.9 |
| 20260507234003 | 45 | 181 | 0.0 | 6.0 | 0.00 | 0.01 | 0.01 | 56 | 1006.8 |
| 20260507233003 | 46 | 237 | 1.0 | 3.0 | 0.00 | 0.01 | 0.01 | 48 | 1006.8 |
| 20260507232003 | 46 | 189 | 1.0 | 3.0 | 0.00 | 0.01 | 0.01 | 48 | 1006.9 |
| 20260507231024 | 47 | 165 | 1.0 | 5.0 | 0.00 | 0.01 | 0.01 | 47 | 1006.9 |
| 20260507230004 | 47 | 359 | 1.0 | 3.0 | 0.00 | 0.01 | 0.01 | 48 | 1006.9 |
| 20260507225003 | 47 | 296 | 2.0 | 9.0 | 0.00 | 0.01 | 0.01 | 46 | 1006.9 |
| 20260507224003 | 47 | 329 | 2.0 | 8.0 | 0.00 | 0.01 | 0.01 | 46 | 1007.0 |
| 20260507223003 | 47 | 48 | 2.0 | 7.0 | 0.00 | 0.01 | 0.01 | 47 | 1007.0 |
| 20260507222003 | 47 | 39 | 2.0 | 6.0 | 0.00 | 0.01 | 0.01 | 51 | 1006.9 |
| 20260507221003 | 47 | 95 | 2.0 | 7.0 | 0.00 | 0.01 | 0.01 | 50 | 1007.1 |
| 20260507220003 | 47 | 223 | 4.0 | 11.0 | 0.00 | 0.02 | 0.01 | 49 | 1007.2 |
| 20260507215003 | 47 | 273 | 3.0 | 8.0 | 0.00 | 0.02 | 0.01 | 49 | 1007.2 |
| 20260507214024 | 46 | 272 | 2.0 | 8.0 | 0.00 | 0.02 | 0.01 | 49 | 1007.3 |
| 20260507213003 | 47 | 235 | 3.0 | 9.0 | 0.00 | 0.02 | 0.01 | 49 | 1007.2 |
| 20260507212003 | 46 | 302 | 2.0 | 7.0 | 0.00 | 0.03 | 0.01 | 48 | 1007.2 |
| 20260507211003 | 46 | 254 | 4.0 | 12.0 | 0.00 | 0.03 | 0.01 | 48 | 1007.2 |
| 20260507210003 | 46 | 230 | 3.0 | 8.0 | 0.00 | 0.03 | 0.01 | 49 | 1007.2 |
| 20260507205003 | 47 | 239 | 4.0 | 12.0 | 0.00 | 0.03 | 0.01 | 49 | 1007.1 |
| 20260507204003 | 46 | 227 | 4.0 | 11.0 | 0.00 | 0.03 | 0.01 | 50 | 1007.1 |
| 20260507203003 | 47 | 238 | 5.0 | 15.0 | 0.00 | 0.03 | 0.01 | 49 | 1007.2 |
| 20260507202024 | 47 | 220 | 4.0 | 10.0 | 0.00 | 0.03 | 0.01 | 49 | 1007.0 |
| 20260507201003 | 47 | 242 | 3.0 | 8.0 | 0.00 | 0.04 | 0.01 | 46 | 1007.1 |
| 20260507200003 | 47 | 229 | 4.0 | 10.0 | 0.00 | 0.04 | 0.01 | 50 | 1007.1 |
| 20260507195003 | 47 | 242 | 3.0 | 11.0 | 0.00 | 0.04 | 0.01 | 49 | 1007.2 |
| 20260507194003 | 47 | 240 | 5.0 | 16.0 | 0.00 | 0.04 | 0.01 | 46 | 1007.3 |
| 20260507193003 | 48 | 268 | 4.0 | 10.0 | 0.00 | 0.04 | 0.01 | 48 | 1007.3 |
| 20260507192003 | 48 | 271 | 4.0 | 10.0 | 0.00 | 0.05 | 0.01 | 46 | 1007.3 |
| 20260507191003 | 48 | 241 | 5.0 | 12.0 | 0.00 | 0.05 | 0.01 | 47 | 1007.3 |
| 20260507190024 | 49 | 242 | 5.0 | 14.0 | 0.00 | 0.05 | 0.01 | 47 | 1007.5 |
| 20260507185024 | 48 | 242 | 6.0 | 17.0 | 0.00 | 0.05 | 0.01 | 50 | 1007.4 |
| 20260507184003 | 47 | 225 | 5.0 | 14.0 | 0.00 | 0.05 | 0.01 | 51 | 1007.3 |
| 20260507183003 | 48 | 254 | 4.0 | 12.0 | 0.00 | 0.05 | 0.01 | 46 | 1007.4 |
| 20260507182003 | 48 | 263 | 4.0 | 10.0 | 0.00 | 0.05 | 0.01 | 45 | 1007.4 |
| 20260507181003 | 49 | 230 | 5.0 | 13.0 | 0.00 | 0.05 | 0.01 | 46 | 1007.2 |
| 20260507180003 | 49 | 246 | 4.0 | 10.0 | 0.00 | 0.05 | 0.01 | 45 | 1007.2 |
| 20260507175003 | 49 | 248 | 4.0 | 14.0 | 0.00 | 0.05 | 0.01 | 49 | 1007.2 |
| 20260507174003 | 48 | 263 | 5.0 | 14.0 | 0.00 | 0.06 | 0.01 | 46 | 1007.3 |
| 20260507173003 | 47 | 237 | 4.0 | 10.0 | 0.00 | 0.06 | 0.01 | 48 | 1007.3 |